Location: Wingville
(42.9917°N, 90.4915°W)
Time: 21:44:03
(UTC+00:00)

LO-87 - Pass Details

Date: 30 June 2022
Orbit: 451 x 466 km, 97.4° (Epoch: 13 August)

Event Time Altitude Azimuth Distance (km) Brightness Sun altitude
Exits shadow 05:07:45 34° 59° (ENE) 781 ? -22.5°
Drops below altitude 10° 05:10:38 10° 6° (N) 1,621 ? -22.6°
Sets 05:12:48 0° 357° (N) 2,505 ? -22.7°
